Location: Bad Salzschlirf
(50.3750°N, 9.3000°E)
Time: 09:03:47
(UTC+01:00)

ISS - Pass Details

Date: 14 December 2018
Orbit: 401 x 408 km, 51.6° (Epoch: 12 December)

Event Time Altitude Azimuth Distance (km) Brightness Sun altitude
Rises 17:11:29 0° 284° (WNW) 2,320 0.9 -7.9°
Reaches altitude 10° 17:13:54 10° 267° (W) 1,456 0.2 -8.2°
Maximum altitude 17:16:23 20° 217° (SW) 993 -0.9 -8.6°
Drops below altitude 10° 17:18:50 10° 168° (SSE) 1,448 -0.8 -8.9°
Sets 17:21:14 0° 151° (SSE) 2,302 0.0 -9.3°
